TimeEDT,TemperatureF,Dew PointF,Humidity,Sea Level PressureIn,VisibilityMPH,Wind Direction,Wind SpeedMPH,Gust SpeedMPH,PrecipitationIn,Events,Conditions,WindDirDegrees,DateUTC
12:53 AM,66.0,51.1,59,30.25,10.0,NE,3.5,-,N/A,,Partly Cloudy,40,2013-03-30 04:53:00
1:53 AM,66.0,51.1,59,30.23,10.0,NNE,3.5,-,N/A,,Partly Cloudy,30,2013-03-30 05:53:00
2:53 AM,63.0,51.1,65,30.22,10.0,Calm,Calm,-,N/A,,Partly Cloudy,0,2013-03-30 06:53:00
3:53 AM,61.0,51.1,70,30.22,10.0,Calm,Calm,-,N/A,,Partly Cloudy,0,2013-03-30 07:53:00
4:53 AM,62.1,51.1,67,30.21,10.0,Calm,Calm,-,N/A,,Partly Cloudy,0,2013-03-30 08:53:00
5:53 AM,60.1,51.1,72,30.22,10.0,Calm,Calm,-,N/A,,Partly Cloudy,0,2013-03-30 09:53:00
6:53 AM,60.1,51.1,72,30.22,10.0,Calm,Calm,-,N/A,,Partly Cloudy,0,2013-03-30 10:53:00
7:53 AM,62.1,53.1,72,30.25,10.0,Calm,Calm,-,N/A,,Scattered Clouds,0,2013-03-30 11:53:00
8:53 AM,69.1,53.1,57,30.27,10.0,ENE,4.6,-,N/A,,Partly Cloudy,60,2013-03-30 12:53:00
9:53 AM,73.0,50.0,44,30.27,10.0,East,12.7,-,N/A,,Partly Cloudy,90,2013-03-30 13:53:00
10:53 AM,73.9,51.1,45,30.27,10.0,East,10.4,17.3,N/A,,Scattered Clouds,90,2013-03-30 14:53:00
11:53 AM,73.9,48.0,40,30.27,10.0,East,11.5,19.6,N/A,,Scattered Clouds,90,2013-03-30 15:53:00
12:53 PM,75.0,46.9,37,30.26,10.0,ENE,11.5,17.3,N/A,,Partly Cloudy,70,2013-03-30 16:53:00
1:53 PM,75.9,48.0,37,30.23,10.0,East,10.4,24.2,N/A,,Scattered Clouds,100,2013-03-30 17:53:00
2:53 PM,75.0,51.1,43,30.21,10.0,East,11.5,-,N/A,,Scattered Clouds,100,2013-03-30 18:53:00
3:53 PM,75.0,52.0,44,30.19,10.0,East,9.2,19.6,N/A,,Scattered Clouds,100,2013-03-30 19:53:00
4:53 PM,73.9,53.1,48,30.18,10.0,ESE,9.2,16.1,N/A,,Scattered Clouds,110,2013-03-30 20:53:00
5:53 PM,73.0,51.1,46,30.18,10.0,SE,10.4,17.3,N/A,,Scattered Clouds,130,2013-03-30 21:53:00
6:53 PM,71.1,52.0,51,30.18,10.0,ESE,9.2,-,N/A,,Scattered Clouds,110,2013-03-30 22:53:00
7:53 PM,69.1,52.0,54,30.19,10.0,ESE,9.2,-,N/A,,Partly Cloudy,110,2013-03-30 23:53:00
8:53 PM,68.0,52.0,56,30.19,10.0,ESE,8.1,-,N/A,,Partly Cloudy,120,2013-03-31 00:53:00
9:53 PM,68.0,53.1,59,30.21,10.0,East,5.8,-,N/A,,Partly Cloudy,100,2013-03-31 01:53:00
10:53 PM,66.9,54.0,63,30.22,10.0,East,9.2,-,N/A,,Partly Cloudy,100,2013-03-31 02:53:00
11:53 PM,68.0,54.0,61,30.22,10.0,East,9.2,-,N/A,,Partly Cloudy,100,2013-03-31 03:53:00